User: anonymous   Login
Location: Acheville
(50.3840°N, 2.8827°E)
Time: 10:15:08
(UTC+00:00)
Language:

SJ-11-01 - Orbit

View from above orbital plane
View from above orbital plane
View from above satellite
View from above satellite

Ground track
Ground track

The orbit data is extracted from the following two-line orbital elements,

1 36088U 09061A   22017.92583270  .00000127  00000-0  35503-4 0  9999
2 36088  97.9408  39.3308 0013021  59.6350 300.6140 14.60257403649178
Epoch (UTC): 17 January 2022 22:13:11
Eccentricity: 0.0013021
inclination: 97.9408°
perigee height: 683 km
apogee height: 701 km
right ascension of ascending node: 39.3308°
argument of perigee: 59.6350°
revolutions per day: 14.60257403
mean anomaly at epoch: 300.6140°
orbit number at epoch: 64917

The dashed part of the orbit path shows where the satellite is in the earth's shadow,  

DLR